Date String (YYYY-MM-DD hh:mm:ss) UTC,Instrument flags,absolute air pressure of the measurement (hPa),sample flow rate (lpm),inlet stack bypass flow (lpm),air temperature of the measurement (°C),ambient temperature measured by the external sensor (°C),aerosol sample conditioner tube jacket temperature (°C),OPC LED temperature (°C),internal box temperature (°C),relative humidity of the measurement (%),span deviation,mass concentration of particles derived from Lorenz-Mie calculation of OPC scattering (μg/m³),mass concentration of particles derived from Lorenz-Mie calculation of OPC scattering (μg/m³),mass concentration of particles derived from Lorenz-Mie calculation of OPC scattering (μg/m³)
DateTimeUTC,F1_M11,P_M11,Q1_M11,Q2_M11,T1_M11,T2_M11,T3_M11,T4_M11,T5_M11,U1_M11,ZSPAN_M11,X0_M11,X2_M11,X1_M11
2023-10-23 03:00:00,SystemResetWarning,0824.9,5.01,000.00,028.8,024.8,000.0,037.1,030.3,14.6,0000.0,0021.09,0005.63,0003.74
2023-10-23 03:01:00,SystemResetWarning,0824.9,5.01,000.00,028.7,024.2,000.0,037.0,030.1,14.7,0000.0,0021.32,0005.58,0003.73
2023-10-23 03:02:00,SystemResetWarning,0824.9,5.01,000.00,028.5,024.4,000.0,037.0,029.9,14.8,0000.0,0020.94,0005.50,0003.73
2023-10-23 03:03:00,SystemResetWarning,0824.9,4.99,000.00,028.4,024.8,000.0,037.0,029.8,14.8,0000.0,0020.28,0005.41,0003.72
2023-10-23 03:04:00,SystemResetWarning,0824.9,5.00,000.00,028.4,025.2,000.0,037.0,029.8,14.9,0000.0,0018.73,0005.33,0003.71
2023-10-23 03:05:00,SystemResetWarning,0824.9,5.01,000.00,028.4,025.6,000.0,037.0,029.9,14.9,0000.0,0018.42,0005.34,0003.70
2023-10-23 03:06:00,SystemResetWarning,0824.9,4.99,000.00,028.3,025.9,000.0,036.9,029.9,14.9,0000.0,0017.91,0005.31,0003.69
2023-10-23 03:07:00,SystemResetWarning,0824.9,4.99,000.00,028.3,026.1,000.0,036.9,030.0,14.9,0000.0,0017.50,0005.26,0003.68
2023-10-23 03:08:00,SystemResetWarning,0824.9,5.01,000.00,028.3,026.4,000.0,036.9,030.0,14.9,0000.0,0017.31,0005.18,0003.68
2023-10-23 03:09:00,SystemResetWarning,0824.9,5.01,000.00,028.3,026.5,000.0,036.9,030.0,14.9,0000.0,0017.00,0005.15,0003.68
2023-10-23 03:10:00,SystemResetWarning,0824.9,5.01,000.00,028.4,026.7,000.0,036.9,030.0,14.8,0000.0,0017.12,0005.10,0003.69
2023-10-23 03:11:00,SystemResetWarning,0824.9,5.01,000.00,028.4,026.8,000.0,036.9,030.1,14.8,0000.0,0017.11,0005.09,0003.69
2023-10-23 03:12:00,SystemResetWarning,0824.9,5.00,000.00,028.4,026.9,000.0,036.9,030.1,14.9,0000.0,0017.36,0005.06,0003.69
2023-10-23 03:13:00,SystemResetWarning,0824.9,5.00,000.00,028.4,027.0,000.0,036.9,030.1,14.9,0000.0,0017.16,0005.01,0003.68
2023-10-23 03:14:00,SystemResetWarning,0824.9,5.00,000.00,028.5,027.1,000.0,036.9,030.2,14.8,0000.0,0016.44,0005.01,0003.69
2023-10-23 03:15:00,SystemResetWarning,0825.0,5.00,000.00,028.5,027.1,000.0,036.9,030.2,14.7,0000.0,0016.26,0005.08,0003.70
2023-10-23 03:16:00,SystemResetWarning,0824.9,5.00,000.00,028.5,027.2,000.0,036.9,030.2,14.7,0000.0,0016.06,0005.05,0003.70
2023-10-23 03:17:00,SystemResetWarning,0824.9,5.00,000.00,028.5,027.2,000.0,036.9,030.2,14.7,0000.0,0016.58,0005.05,0003.71
2023-10-23 03:18:00,SystemResetWarning,0824.9,5.00,000.00,028.6,027.3,000.0,036.9,030.2,14.7,0000.0,0015.81,0005.06,0003.71
2023-10-23 03:19:00,SystemResetWarning,0824.9,5.00,000.00,028.6,027.3,000.0,037.0,030.3,14.6,0000.0,0014.71,0005.10,0003.71
2023-10-23 03:20:00,SystemResetWarning,0824.9,5.00,000.00,028.6,027.3,000.0,037.0,030.3,14.5,0000.0,0014.27,0005.08,0003.71
2023-10-23 03:21:00,SystemResetWarning,0825.0,4.99,000.00,028.6,027.4,000.0,037.0,030.3,14.5,0000.0,0014.26,0005.06,0003.71
2023-10-23 03:22:00,SystemResetWarning,0825.0,4.99,000.00,028.6,027.4,000.0,037.0,030.3,14.6,0000.0,0015.13,0005.08,0003.70
2023-10-23 03:23:00,SystemResetWarning,0824.9,4.99,000.00,028.7,027.4,000.0,037.0,030.3,14.6,0000.0,0015.73,0005.12,0003.72
2023-10-23 03:24:00,SystemResetWarning,0824.9,5.00,000.00,028.7,027.4,000.0,037.0,030.3,14.5,0000.0,0016.22,0005.18,0003.74
2023-10-23 03:25:00,SystemResetWarning,0825.0,4.99,000.00,028.7,027.5,000.0,037.1,030.4,14.5,0000.0,0016.06,0005.17,0003.73
2023-10-23 03:26:00,SystemResetWarning,0825.0,5.01,000.00,028.7,027.5,000.0,037.1,030.4,14.5,0000.0,0015.86,0005.15,0003.73
2023-10-23 03:27:00,SystemResetWarning,0824.9,5.00,000.00,028.8,027.5,000.0,037.1,030.4,14.4,0000.0,0015.83,0005.14,0003.73
2023-10-23 03:28:00,SystemResetWarning,0824.9,5.01,000.00,028.8,027.5,000.0,037.1,030.4,14.4,0000.0,0015.35,0005.16,0003.72
2023-10-23 03:29:00,SystemResetWarning,0825.0,5.01,000.00,028.8,027.6,000.0,037.1,030.4,14.4,0000.0,0015.53,0005.22,0003.71
2023-10-23 03:30:00,SystemResetWarning,0824.9,5.00,000.00,028.8,027.6,000.0,037.1,030.5,14.3,0000.0,0015.16,0005.24,0003.71
2023-10-23 03:31:00,SystemResetWarning,0825.0,5.00,000.00,028.8,027.6,000.0,037.2,030.5,14.3,0000.0,0015.32,0005.26,0003.70
2023-10-23 03:32:00,SystemResetWarning,0824.9,4.98,000.00,028.8,027.6,000.0,037.2,030.5,14.3,0000.0,0015.97,0005.27,0003.70
2023-10-23 03:33:00,SystemResetWarning,0824.9,5.00,000.00,028.9,027.6,000.0,037.2,030.5,14.3,0000.0,0016.80,0005.26,0003.69
2023-10-23 03:34:00,SystemResetWarning,0824.9,4.99,000.00,028.9,027.7,000.0,037.2,030.5,14.3,0000.0,0015.53,0005.22,0003.68
2023-10-23 03:35:00,SystemResetWarning,0825.0,4.99,000.00,028.9,027.7,000.0,037.2,030.5,14.2,0000.0,0014.62,0005.16,0003.66
2023-10-23 03:36:00,SystemResetWarning,0824.9,5.00,000.00,028.9,027.4,000.0,037.2,030.6,14.2,0000.0,0014.61,0005.12,0003.65
2023-10-23 03:37:00,SystemResetWarning,0824.9,5.00,000.00,028.9,025.5,000.0,037.2,030.4,14.2,0000.0,0014.51,0005.09,0003.65
2023-10-23 03:38:00,SystemResetWarning,0824.9,5.00,000.00,028.8,024.4,000.0,037.1,030.2,14.2,0000.0,0014.26,0005.06,0003.65
2023-10-23 03:39:00,SystemResetWarning,0824.8,5.01,000.00,028.6,024.4,000.0,037.1,030.0,14.3,0000.0,0014.28,0005.05,0003.66
2023-10-23 03:40:00,SystemResetWarning,0824.9,5.00,000.00,028.5,024.7,000.0,037.1,029.9,14.4,0000.0,0014.32,0004.99,0003.67
2023-10-23 03:41:00,SystemResetWarning,0824.8,5.00,000.00,028.4,025.1,000.0,037.1,029.9,14.5,0000.0,0014.43,0004.94,0003.70
2023-10-23 03:42:00,SystemResetWarning,0824.8,5.00,000.00,028.4,025.5,000.0,037.0,029.9,14.5,0000.0,0015.24,0004.97,0003.72
2023-10-23 03:43:00,SystemResetWarning,0824.8,5.00,000.00,028.4,025.8,000.0,037.0,030.0,14.5,0000.0,0015.21,0005.01,0003.74
2023-10-23 03:44:00,SystemResetWarning,0824.8,4.99,000.00,028.4,026.0,000.0,037.0,030.0,14.5,0000.0,0013.81,0005.04,0003.75
2023-10-23 03:45:00,SystemResetWarning,0824.9,4.99,000.00,028.4,026.3,000.0,037.0,030.0,14.5,0000.0,0014.09,0005.06,0003.76
2023-10-23 03:46:00,SystemResetWarning,0824.9,5.00,000.00,028.4,026.5,000.0,037.0,030.0,14.5,0000.0,0014.41,0005.11,0003.78
2023-10-23 03:47:00,SystemResetWarning,0824.9,5.01,000.00,028.4,026.6,000.0,037.0,030.1,14.5,0000.0,0015.53,0005.15,0003.79
2023-10-23 03:48:00,SystemResetWarning,0824.9,5.00,000.00,028.4,026.7,000.0,037.0,030.1,14.5,0000.0,0016.46,0005.17,0003.80
2023-10-23 03:49:00,SystemResetWarning,0824.9,5.01,000.00,028.4,026.8,000.0,037.0,030.1,14.5,0000.0,0016.73,0005.23,0003.81
2023-10-23 03:50:00,SystemResetWarning,0824.9,5.01,000.00,028.4,026.9,000.0,037.0,030.1,14.5,0000.0,0017.12,0005.25,0003.82
2023-10-23 03:51:00,SystemResetWarning,0824.9,4.99,000.00,028.5,027.0,000.0,037.0,030.2,14.5,0000.0,0017.18,0005.29,0003.81
2023-10-23 03:52:00,SystemResetWarning,0824.9,4.99,000.00,028.5,027.1,000.0,037.0,030.2,14.5,0000.0,0017.47,0005.30,0003.79
2023-10-23 03:53:00,SystemResetWarning,0824.9,4.99,000.00,028.5,027.1,000.0,037.0,030.2,14.5,0000.0,0017.28,0005.31,0003.78
2023-10-23 03:54:00,SystemResetWarning,0824.9,5.00,000.00,028.5,027.2,000.0,037.0,030.2,14.4,0000.0,0017.32,0005.32,0003.76
2023-10-23 03:55:00,SystemResetWarning,0824.9,5.01,000.00,028.5,027.2,000.0,037.0,030.2,14.4,0000.0,0017.07,0005.35,0003.76
2023-10-23 03:56:00,SystemResetWarning,0824.9,5.00,000.00,028.6,027.3,000.0,037.0,030.3,14.4,0000.0,0016.54,0005.33,0003.76
2023-10-23 03:57:00,SystemResetWarning,0824.9,5.01,000.00,028.6,027.3,000.0,037.0,030.3,14.4,0000.0,0016.57,0005.33,0003.75
2023-10-23 03:58:00,SystemResetWarning,0824.9,5.01,000.00,028.6,027.3,000.0,037.0,030.3,14.3,0000.0,0015.56,0005.35,0003.75
2023-10-23 03:59:00,SystemResetWarning,0824.9,5.00,000.00,028.6,027.4,000.0,037.0,030.3,14.3,0000.0,0014.50,0005.36,0003.76
